Location: Azul
(36.7830°S, 59.8500°W)
Time: 20:24:38
(UTC-03:00)

ISS - Pass Details

Date: 22 February 2020
Orbit: 415 x 422 km, 51.6° (Epoch: 27 February)

Event Time Altitude Azimuth Distance (km) Brightness Sun altitude
Rises 20:32:26 0° 253° (WSW) 2,385 2.5 -9.4°
Reaches altitude 10° 20:36:06 10° 212° (SSW) 1,523 -0.1 -10.1°
Maximum altitude 20:36:56 11° 198° (SSW) 1,483 -0.4 -10.2°
Drops below altitude 10° 20:37:47 10° 184° (S) 1,524 -0.6 -10.4°
Sets 20:41:27 0° 143° (SE) 2,392 -0.1 -11.1°
